2018-092D (44042 NORAD) Tracking and Keplerian Element Data

This shows tracking and keplerian element data for the satellite.

Feedback or suggestion? Click here.




ElementValue
Catalog44042
Name2018-092D
Epoch Orbit1514
Epoch Day53.60041837
Epoch Year2019
RAAN212.7058
Inclination51.6414
Eccentricity0.0003237
Argument of Perigee61.263
Mean Anonmoly298.8639
Mean Motion15.36411719
Decay Rate1.089E-05
L11 44042U 18092D 19053.60041837 .00001089 00000-0 40922-4 0 9990
L22 44042 51.6414 212.7058 0003237 61.2630 298.8639 15.36411719 15149

Live tracking and technical data element details for 2018-092D (NORAD 44042). 2018-092D can be tracked NOW for your location showing map with azimuth and elevation plus other details from your city location.

Track the satellite on the map from your city or location and see movement details for azimuth, elevation, latitude, longitude, range, height, and movement on the map or in text.







IsCatalogInMostPopularTable: catalog: 44042, numindb: 10
Update: records affected: 1



GetName: 44042 2018-092D

Hit Count: updated at: Sat, 23 Feb 2019 17:14:36 GMT